Location: ???????????
(54.5822°N, 39.1075°E)
Time: 07:00:43
(UTC+00:00)

Okean-O - Pass Details

Date: 19 May 2025
Orbit: 628 x 631 km, 98.0° (Epoch: 24 June)

Event Time Altitude Azimuth Distance (km) Brightness Sun altitude
Rises 18:26:27 0° 182° (S) 2,915 5.6 -6.8°
Reaches altitude 10° 18:28:44 10° 189° (S) 2,012 4.8 -7.0°
Maximum altitude 18:32:55 43° 262° (W) 895 3.7 -7.4°
Drops below altitude 10° 18:37:07 10° 334° (NNW) 2,027 6.8 -7.7°
Sets 18:39:26 0° 341° (NNW) 2,939 7.6 -7.9°
